AL7BX-WX Weather Reports


time (UTC)temp
C
wind
direction
speed
KPH
gust
KPH
rain 1hr
cm
rain 24hr
cm
rain mn
cm
humidity
%
barometer
mb
20260830224713 28 179 17.7 37.0 0.00 0.00 0.00 32
20260830223603 28 181 14.5 35.4 0.00 0.00 0.00 31
20260830222703 28 174 16.1 37.0 0.00 0.00 0.00 30
20260830221803 28 164 17.7 33.8 0.00 0.00 0.00 29
20260830220903 29 165 17.7 38.6 0.00 0.00 0.00 28
20260830220003 29 171 19.3 38.6 0.00 0.00 0.00 30
20260830215403 30 166 17.7 38.6 0.00 0.00 0.00 29
20260830214503 30 177 16.1 30.6 0.00 0.00 0.00 28
20260830213603 30 180 16.1 27.4 0.00 0.00 0.00 31
20260830212703 30 178 17.7 38.6 0.00 0.00 0.00 30
20260830212012 29 182 17.7 35.4 0.00 0.00 0.00 30
20260830210903 28 184 17.7 35.4 0.00 0.00 0.00 32
20260830210213 28 169 17.7 43.5 0.00 0.00 0.00 31
20260830205403 29 180 19.3 41.8 0.00 0.00 0.00 31
20260830204503 29 164 17.7 40.2 0.00 0.00 0.00 31
20260830203603 28 170 14.5 40.2 0.00 0.00 0.00 32
20260830202703 28 192 14.5 37.0 0.00 0.00 0.00 31
20260830201803 29 179 16.1 33.8 0.00 0.00 0.00 31
20260830200903 29 176 16.1 37.0 0.00 0.00 0.00 31
20260830200003 28 176 17.7 35.4 0.00 0.00 0.00 31
20260830195614 29 178 17.7 37.0 0.00 0.00 0.00 32
20260830194503 29 184 12.9 30.6 0.00 0.00 0.00 32
20260830193813 28 190 16.1 35.4 0.00 0.00 0.00 33
20260830192914 28 189 14.5 32.2 0.00 0.00 0.00 32
20260830191803 28 154 16.1 30.6 0.00 0.00 0.00 33
20260830190903 28 165 17.7 33.8 0.00 0.00 0.00 33
20260830190003 28 173 17.7 33.8 0.00 0.00 0.00 34
20260830185403 28 176 17.7 37.0 0.00 0.00 0.00 32
20260830184503 27 184 20.9 43.5 0.00 0.00 0.00 33
20260830183603 27 179 19.3 41.8 0.00 0.00 0.00 34
20260830182914 27 171 16.1 30.6 0.00 0.00 0.00 34
20260830181803 27 179 17.7 40.2 0.00 0.00 0.00 35
20260830180903 27 175 16.1 35.4 0.00 0.00 0.00 36
20260830180003 27 176 14.5 33.8 0.00 0.00 0.00 37
20260830175613 27 172 12.9 25.7 0.00 0.00 0.00 38